User: anonymous   Login
Location: Dammartin
(48.9032°N, 1.6195°E)
Time: 18:05:09
(UTC+00:00)
Language:

BlueWalker 3 - Orbit

View from above orbital plane
View from above orbital plane
View from above satellite
View from above satellite

Ground track
Ground track

The orbit data is extracted from the following two-line orbital elements,

1 53807U 22111AL  23264.39609458  .00006923  00000-0  31424-3 0  9998
2 53807  53.2106 352.8202 0011710 357.1882   2.9048 15.21864996 57093
Epoch (UTC): 21 September 2023 09:30:22
Eccentricity: 0.0011710
inclination: 53.2106°
perigee height: 492 km
apogee height: 508 km
right ascension of ascending node: 352.8202°
argument of perigee: 357.1882°
revolutions per day: 15.21864996
mean anomaly at epoch: 2.9048°
orbit number at epoch: 5709

The dashed part of the orbit path shows where the satellite is in the earth's shadow,  

DLR